FW7456 Weather Reports


Display with metric or nautical units.
time (UTC)temp
F
wind
direction
speed
MPH
gust
MPH
rain 1hr
in
rain 24hr
in
rain mn
in
humidity
%
barometer
mb
20260508174552 67 173 2.0 9.0 0.00 0.05 0.00 52 1019.3
20260508173054 66 242 3.0 12.0 0.00 0.05 0.00 50 1019.7
20260508171557 64 148 3.0 7.0 0.00 0.05 0.00 51 1019.8
20260508170100 65 159 3.0 8.0 0.00 0.05 0.00 52 1020.4
20260508164558 66 211 2.0 7.0 0.00 0.05 0.00 49 1020.6
20260508163106 64 130 4.0 9.0 0.00 0.05 0.00 51 1021.0
20260508161559 64 290 2.0 6.0 0.00 0.05 0.00 54 1021.3
20260508160056 63 113 6.0 12.0 0.00 0.05 0.00 52 1021.9
20260508154556 63 106 6.0 10.0 0.00 0.05 0.00 54 1022.2
20260508153107 64 126 3.0 7.0 0.00 0.05 0.00 55 1022.3
20260508151556 64 319 2.0 6.0 0.00 0.05 0.00 53 1022.3
20260508150053 63 263 2.0 8.0 0.00 0.05 0.00 53 1022.7
20260508144557 62 259 3.0 6.0 0.00 0.05 0.00 54 1022.8
20260508143114 61 182 3.0 6.0 0.00 0.05 0.00 59 1023.0
20260508141558 59 119 2.0 5.0 0.00 0.05 0.00 58 1022.9
20260508140110 60 184 1.0 5.0 0.00 0.05 0.00 61 1022.7
20260508134552 59 184 2.0 6.0 0.00 0.06 0.00 62 1022.5
20260508133057 59 303 2.0 4.0 0.00 0.06 0.00 62 1022.5
20260508131552 57 0 0.0 4.0 0.00 0.06 0.00 67 1022.3
20260508130053 57 278 0.0 3.0 0.00 0.06 0.00 69 1021.9
20260508124554 57 278 0.0 3.0 0.00 0.10 0.00 70 1021.7
20260508123054 55 301 1.0 3.0 0.00 0.10 0.00 73 1021.0
20260508121550 52 309 1.0 3.0 0.00 0.10 0.00 86 1020.9
20260508120112 50 340 0.0 2.0 0.00 0.10 0.00 89 1020.6
20260508114602 47 0 0.0 2.0 0.00 0.21 0.00 89 1020.2
20260508113109 46 0 0.0 3.0 0.00 0.21 0.00 92 1019.7
20260508111553 44 342 1.0 5.0 0.00 0.21 0.00 93 1019.2
20260508104552 44 0 0.0 5.0 0.00 0.21 0.00 93 1018.5
20260508103056 44 314 0.0 4.0 0.00 0.21 0.00 93 1018.1
20260508101554 44 319 1.0 7.0 0.00 0.21 0.00 93 1017.9
20260508100114 44 360 2.0 5.0 0.00 0.21 0.00 93 1017.8
20260508094551 44 0 2.0 6.0 0.00 0.21 0.00 92 1017.8
20260508093053 44 325 1.0 4.0 0.00 0.21 0.00 92 1017.8
20260508091607 45 327 1.0 5.0 0.00 0.21 0.00 92 1017.8
20260508090053 45 294 2.0 4.0 0.00 0.21 0.00 92 1017.7
20260508084553 45 302 2.0 4.0 0.00 0.23 0.00 92 1017.5
20260508083050 45 318 1.0 3.0 0.00 0.23 0.00 92 1017.5
20260508081614 46 321 2.0 5.0 0.00 0.23 0.00 92 1017.4
20260508080050 46 313 3.0 7.0 0.00 0.23 0.00 92 1017.2
20260508074559 46 289 3.0 7.0 0.00 0.23 0.00 93 1017.0
20260508073102 45 298 1.0 4.0 0.00 0.23 0.00 93 1016.8
20260508071557 46 305 2.0 4.0 0.00 0.23 0.00 92 1016.8
20260508070056 46 307 0.0 3.0 0.00 0.23 0.00 92 1017.0
20260508064556 46 308 1.0 5.0 0.00 0.23 0.00 92 1016.8
20260508063058 47 352 2.0 4.0 0.00 0.23 0.00 92 1016.7
20260508061559 47 323 2.0 5.0 0.00 0.23 0.00 92 1016.5
20260508060125 47 327 2.0 4.0 0.00 0.23 0.00 91 1016.6
20260508054639 48 0 0.0 2.0 0.00 0.27 0.00 91 1016.8
20260508053055 48 0 0.0 3.0 0.00 0.27 0.00 91 1016.6
20260508051552 48 318 2.0 4.0 0.00 0.27 0.00 91 1016.6
20260508050056 48 295 2.0 5.0 0.00 0.27 0.00 91 1016.6
20260508044554 48 360 2.0 5.0 0.00 0.32 0.00 90 1016.4
20260508043058 49 326 2.0 5.0 0.00 0.32 0.00 89 1016.3
20260508041554 49 325 2.0 4.0 0.00 0.32 0.00 89 1016.3
20260508040055 49 0 1.0 8.0 0.00 0.32 0.00 89 1016.5
20260508034553 49 294 2.0 3.0 0.00 0.32 0.32 90 1016.3
20260508033049 50 0 0.0 2.0 0.00 0.32 0.32 88 1016.3
20260508031556 50 0 0.0 2.0 0.00 0.32 0.32 86 1016.2
20260508030055 51 0 0.0 4.0 0.00 0.32 0.32 85 1016.2
20260508024607 54 0 0.0 3.0 0.00 0.37 0.32 74 1015.9
20260508023054 54 0 0.0 0.0 0.00 0.37 0.32 77 1015.5
20260508021551 54 0 0.0 3.0 0.00 0.37 0.32 77 1015.6
20260508014602 56 0 0.0 3.0 0.00 0.42 0.32 70 1015.2
20260508013101 57 274 1.0 3.0 0.00 0.42 0.32 68 1014.8
20260508011606 58 311 1.0 7.0 0.00 0.42 0.32 67 1014.4
20260508010054 58 344 1.0 5.0 0.00 0.42 0.32 68 1014.4
20260508004553 59 80 1.0 6.0 0.00 0.49 0.32 67 1014.2
20260508003055 59 360 0.0 5.0 0.00 0.49 0.32 69 1013.7
20260508001553 60 360 3.0 9.0 0.00 0.49 0.32 66 1013.5
20260508000056 62 311 3.0 8.0 0.00 0.49 0.32 66 1013.3
20260507234553 63 360 3.0 8.0 0.00 0.54 0.32 63 1013.6
20260507233103 64 360 1.0 8.0 0.00 0.54 0.32 63 1013.3
20260507231559 65 130 4.0 14.0 0.00 0.54 0.32 62 1013.1
20260507230056 66 324 5.0 17.0 0.00 0.54 0.32 64 1012.8
20260507224553 68 338 5.0 20.0 0.00 0.55 0.32 62 1012.6
20260507223055 70 15 6.0 15.0 0.00 0.55 0.32 61 1012.3
20260507221554 71 323 4.0 10.0 0.00 0.55 0.32 61 1011.9
20260507220059 71 283 5.0 15.0 0.00 0.55 0.32 61 1011.5
20260507214558 72 312 8.0 14.0 0.00 0.55 0.32 61 1011.3
20260507213058 72 315 9.0 17.0 0.00 0.55 0.32 61 1010.9
20260507211603 73 311 8.0 17.0 0.00 0.55 0.32 62 1010.7
20260507204601 74 336 5.0 12.0 0.00 0.55 0.32 65 1010.5
20260507203100 74 288 2.0 9.0 0.00 0.55 0.32 72 1010.2
20260507201556 73 325 2.0 6.0 0.00 0.55 0.32 76 1010.3
20260507200053 72 0 1.0 5.0 0.01 0.55 0.32 85 1010.4
20260507194557 71 130 1.0 3.0 0.05 0.55 0.32 85 1010.3
20260507193055 71 0 0.0 3.0 0.05 0.55 0.32 87 1010.6
20260507191557 67 351 0.0 3.0 0.05 0.55 0.32 92 1010.9
20260507190055 67 0 1.0 10.0 0.04 0.54 0.31 87 1011.2
20260507184554 73 338 2.0 15.0 0.00 0.50 0.27 75 1011.4
20260507183053 75 239 4.0 12.0 0.00 0.50 0.27 71 1010.7
20260507181552 74 232 3.0 9.0 0.00 0.50 0.27 72 1011.2
20260507180058 73 234 4.0 10.0 0.00 0.50 0.27 75 1011.5